Time,TemperatureF,DewpointF,PressureIn,WindDirection,WindDirectionDegrees,WindSpeedMPH,WindSpeedGustMPH,Humidity,HourlyPrecipIn,Conditions,Clouds,dailyrainin,SolarRadiationWatts/m^2,SoftwareType,DateUTC
2013-07-12 01:32:00,69.0,68.0,29.94,WSW,243,1.0,2.0,98,0.00,,,0.09,0.000000,,2013-07-12 05:32:00,
2013-07-12 01:43:00,69.0,68.0,29.95,NNE,25,0.0,3.0,98,0.00,,,0.09,0.000000,,2013-07-12 05:43:00,
2013-07-12 01:53:00,69.0,69.0,29.95,NNE,25,0.0,0.0,99,0.00,,,0.09,0.000000,,2013-07-12 05:53:00,
2013-07-12 02:01:00,69.0,69.0,29.95,NE,49,0.0,1.0,99,0.00,,,0.09,0.000000,,2013-07-12 06:01:00,
2013-07-12 02:11:00,69.0,69.0,29.95,NE,49,0.0,0.0,99,0.00,,,0.09,0.000000,,2013-07-12 06:11:00,
2013-07-12 02:52:00,69.0,69.0,29.95,SSE,159,0.0,0.0,99,0.00,,,0.09,0.000000,,2013-07-12 06:52:00,
2013-07-12 03:02:00,69.0,69.0,29.95,SSW,193,0.0,0.0,99,0.00,,,0.09,0.000000,,2013-07-12 07:02:00,
2013-07-12 03:12:00,69.0,69.0,29.95,SE,142,1.0,3.0,99,0.00,,,0.09,0.000000,,2013-07-12 07:12:00,
2013-07-12 03:22:00,69.0,69.0,29.95,SSW,196,1.0,3.0,99,0.00,,,0.09,0.000000,,2013-07-12 07:22:00,
2013-07-12 03:32:00,68.0,68.0,29.95,WSW,238,0.0,3.0,99,0.00,,,0.09,0.000000,,2013-07-12 07:32:00,
2013-07-12 03:43:00,68.0,68.0,29.95,SW,222,2.0,3.0,99,0.00,,,0.09,0.000000,,2013-07-12 07:43:00,
2013-07-12 03:52:00,68.0,68.0,29.94,West,279,1.0,3.0,99,0.00,,,0.09,0.000000,,2013-07-12 07:52:00,
2013-07-12 04:01:00,68.0,68.0,29.94,West,279,0.0,2.0,99,0.00,,,0.09,0.000000,,2013-07-12 08:01:00,
2013-07-12 04:21:00,68.0,68.0,29.94,WSW,252,0.0,2.0,99,0.00,,,0.09,0.000000,,2013-07-12 08:21:00,
2013-07-12 04:32:00,68.0,68.0,29.94,WSW,252,0.0,1.0,99,0.00,,,0.09,0.000000,,2013-07-12 08:32:00,
2013-07-12 04:42:00,68.0,68.0,29.94,WSW,252,1.0,2.0,99,0.00,,,0.09,0.000000,,2013-07-12 08:42:00,
2013-07-12 04:53:00,68.0,68.0,29.94,WSW,252,1.0,3.0,99,0.00,,,0.09,0.000000,,2013-07-12 08:53:00,
2013-07-12 05:02:00,68.0,68.0,29.94,WSW,252,0.0,0.0,99,0.00,,,0.09,0.000000,,2013-07-12 09:02:00,
2013-07-12 05:12:00,68.0,68.0,29.94,WSW,252,0.0,0.0,99,0.00,,,0.09,0.000000,,2013-07-12 09:12:00,
2013-07-12 05:22:00,68.0,68.0,29.94,WSW,252,0.0,0.0,99,0.00,,,0.09,0.000000,,2013-07-12 09:22:00,
2013-07-12 05:32:00,68.0,68.0,29.94,WSW,252,0.0,0.0,99,0.00,,,0.09,0.000000,,2013-07-12 09:32:00,
2013-07-12 05:52:00,68.0,68.0,29.95,WSW,252,0.0,0.0,99,0.00,,,0.09,0.000000,,2013-07-12 09:52:00,
2013-07-12 06:33:00,68.0,68.0,29.96,NNE,33,0.0,0.0,99,0.00,,,0.08,0.000000,,2013-07-12 10:33:00,
2013-07-12 07:02:00,68.0,68.0,29.96,SE,124,0.0,2.0,99,0.00,,,0.08,14.000000,,2013-07-12 11:02:00,
2013-07-12 07:32:00,68.0,68.0,29.97,NNW,338,0.0,1.0,99,0.00,,,0.08,54.000000,,2013-07-12 11:32:00,
2013-07-12 07:43:00,68.0,68.0,29.98,NE,39,0.0,1.0,99,0.00,,,0.08,53.000000,,2013-07-12 11:43:00,
2013-07-12 07:52:00,68.0,68.0,29.98,NE,39,0.0,1.0,99,0.00,,,0.08,67.000000,,2013-07-12 11:52:00,
2013-07-12 08:02:00,68.0,68.0,29.98,East,81,0.0,1.0,99,0.00,,,0.08,74.000000,,2013-07-12 12:02:00,
2013-07-12 08:32:00,69.0,69.0,29.99,NE,46,0.0,1.0,99,0.00,,,0.08,86.000000,,2013-07-12 12:32:00,
2013-07-12 08:43:00,69.0,69.0,29.99,NE,46,0.0,1.0,99,0.00,,,0.08,123.000000,,2013-07-12 12:43:00,
2013-07-12 08:52:00,69.0,69.0,29.99,East,91,0.0,2.0,99,0.00,,,0.08,128.000000,,2013-07-12 12:52:00,
2013-07-12 09:01:00,69.0,69.0,29.99,East,91,0.0,2.0,99,0.00,,,0.08,125.000000,,2013-07-12 13:01:00,
2013-07-12 09:32:00,71.0,70.0,30.00,East,90,0.0,3.0,97,0.00,,,0.08,316.000000,,2013-07-12 13:32:00,
2013-07-12 09:43:00,71.0,70.0,30.00,ENE,66,1.0,4.0,96,0.00,,,0.08,151.000000,,2013-07-12 13:43:00,
2013-07-12 09:53:00,71.0,70.0,30.00,ENE,70,1.0,4.0,96,0.00,,,0.08,285.000000,,2013-07-12 13:53:00,
2013-07-12 10:32:00,73.0,71.0,30.01,NE,55,0.0,3.0,92,0.00,,,0.08,139.000000,,2013-07-12 14:32:00,
2013-07-12 10:44:00,73.0,70.0,30.01,ESE,111,3.0,5.0,90,0.00,,,0.08,327.000000,,2013-07-12 14:44:00,
2013-07-12 10:53:00,73.0,69.0,30.01,East,86,5.0,9.0,86,0.00,,,0.08,178.000000,,2013-07-12 14:53:00,
2013-07-12 11:02:00,73.0,69.0,30.01,East,79,4.0,11.0,86,0.00,,,0.08,206.000000,,2013-07-12 15:02:00,
2013-07-12 11:33:00,73.0,69.0,30.01,East,101,3.0,9.0,87,0.00,,,0.08,202.000000,,2013-07-12 15:33:00,
2013-07-12 11:53:00,74.0,69.0,30.02,ENE,76,5.0,8.0,84,0.00,,,0.08,596.000000,,2013-07-12 15:53:00,
2013-07-12 12:32:00,75.0,69.0,30.01,East,88,5.0,8.0,81,0.00,,,0.08,612.000000,,2013-07-12 16:32:00,
2013-07-12 13:37:00,76.0,69.0,30.01,ESE,107,6.0,10.0,78,0.00,,,0.08,448.000000,,2013-07-12 17:37:00,
2013-07-12 13:53:00,76.0,68.0,30.00,ESE,113,7.0,10.0,77,0.00,,,0.08,638.000000,,2013-07-12 17:53:00,
2013-07-12 14:34:00,77.0,69.0,30.00,ESE,109,5.0,9.0,77,0.00,,,0.08,520.000000,,2013-07-12 18:34:00,
2013-07-12 14:48:00,77.0,69.0,30.00,ESE,109,6.0,11.0,77,0.00,,,0.08,708.000000,,2013-07-12 18:48:00,
2013-07-12 14:55:00,77.0,69.0,30.00,ESE,103,7.0,11.0,76,0.00,,,0.08,708.000000,,2013-07-12 18:55:00,
2013-07-12 15:46:00,78.0,69.0,30.00,East,79,7.0,11.0,73,0.00,,,0.08,550.000000,,2013-07-12 19:46:00,
2013-07-12 15:56:00,77.0,68.0,29.99,ESE,111,6.0,14.0,75,0.00,,,0.08,536.000000,,2013-07-12 19:56:00,
2013-07-12 16:34:00,77.0,67.0,29.99,ENE,75,8.0,12.0,72,0.00,,,0.08,475.000000,,2013-07-12 20:34:00,
2013-07-12 17:03:00,77.0,67.0,29.99,East,85,7.0,13.0,72,0.00,,,0.08,788.000000,,2013-07-12 21:03:00,
2013-07-12 17:46:00,75.0,67.0,30.00,ESE,120,3.0,7.0,76,0.00,,,0.08,250.000000,,2013-07-12 21:46:00,
2013-07-12 17:55:00,75.0,67.0,30.01,NE,45,3.0,9.0,75,0.00,,,0.08,246.000000,,2013-07-12 21:55:00,
2013-07-12 18:04:00,75.0,67.0,30.01,East,84,5.0,8.0,75,0.00,,,0.08,58.000000,,2013-07-12 22:04:00,
2013-07-12 19:04:00,75.0,68.0,30.02,ESE,110,3.0,6.0,78,0.00,,,0.00,111.000000,,2013-07-12 23:04:00,
2013-07-12 19:43:00,73.0,66.0,30.03,East,90,4.0,7.0,80,0.00,,,0.00,18.000000,,2013-07-12 23:43:00,
2013-07-12 19:55:00,73.0,67.0,30.04,ESE,112,3.0,8.0,81,0.00,,,0.00,19.000000,,2013-07-12 23:55:00,
2013-07-12 20:06:00,72.0,66.0,30.03,ESE,103,3.0,9.0,82,0.00,,,0.00,14.000000,,2013-07-13 00:06:00,
2013-07-12 20:17:00,72.0,67.0,30.04,East,89,1.0,5.0,83,0.00,,,0.00,9.000000,,2013-07-13 00:17:00,
2013-07-12 20:25:00,71.0,66.0,30.05,East,84,1.0,3.0,84,0.00,,,0.00,9.000000,,2013-07-13 00:25:00,
2013-07-12 20:33:00,71.0,66.0,30.04,ENE,75,2.0,5.0,85,0.00,,,0.00,9.000000,,2013-07-13 00:33:00,
2013-07-12 20:46:00,71.0,66.0,30.05,ENE,60,4.0,6.0,84,0.00,,,0.00,5.000000,,2013-07-13 00:46:00,
2013-07-12 20:54:00,71.0,66.0,30.04,East,79,4.0,8.0,83,0.00,,,0.00,0.000000,,2013-07-13 00:54:00,
2013-07-12 21:05:00,71.0,66.0,30.05,ENE,70,2.0,6.0,84,0.00,,,0.00,0.000000,,2013-07-13 01:05:00,
2013-07-12 21:13:00,71.0,67.0,30.05,ENE,74,0.0,4.0,87,0.00,,,0.00,0.000000,,2013-07-13 01:13:00,
2013-07-12 21:24:00,70.0,66.0,30.05,ENE,74,3.0,4.0,86,0.00,,,0.00,0.000000,,2013-07-13 01:24:00,
2013-07-12 21:37:00,70.0,66.0,30.05,ENE,74,2.0,5.0,86,0.00,,,0.00,0.000000,,2013-07-13 01:37:00,
2013-07-12 21:47:00,70.0,66.0,30.05,ESE,105,4.0,6.0,86,0.00,,,0.00,0.000000,,2013-07-13 01:47:00,
2013-07-12 21:55:00,69.0,66.0,30.06,ENE,63,1.0,4.0,89,0.00,,,0.00,0.000000,,2013-07-13 01:55:00,
2013-07-12 22:06:00,69.0,66.0,30.06,ESE,117,1.0,4.0,89,0.00,,,0.00,0.000000,,2013-07-13 02:06:00,
2013-07-12 22:14:00,68.0,65.0,30.07,North,355,0.0,2.0,90,0.00,,,0.00,0.000000,,2013-07-13 02:14:00,
2013-07-12 22:46:00,68.0,66.0,30.07,East,81,3.0,5.0,92,0.00,,,0.00,0.000000,,2013-07-13 02:46:00,